Other Public Products
Issued by NWS Grand Forks, ND

Home | Current Version | Previous Version | Graphics & Text | Print | Product List | Glossary Off
Versions: 1 2 3 4 5 6 7 8 9 10 11 12 13 14 15 16 17 18 19 20 21 22 23 24 25 26 27 28 29 30 31 32 33 34 35 36 37 38 39 40 41 42 43 44 45 46 47 48 49 50

000
FPUS83 KFGF 250131
OPUFGF
PRAIRIE TO PINES WEATHER ROUNDUP
NATIONAL WEATHER SERVICE EASTERN NORTH DAKOTA/GRAND FORKS ND
800 PM CDT WED AUG 24 2016

 **SATELLITE DATA USED TO AUGMENT SKY COVER AT AUTOMATED STATIONS**
 *****  WEATHER ACROSS EASTERN NORTH DAKOTA  *****

CITY           SKY/WX    TMP DP  RH WIND       PRES   REMARKS
GRAND FORKS    PTCLDY    68  52  56 W9        29.89R
GRAND FORKS AF NOT AVBL
GRAND CITY NWS   N/A     64 N/A N/A W10         N/A
BUXTON           N/A     69  53  58 W6          N/A
DEVILS LAKE    PTCLDY    66  53  63 W22G28    29.92S
FARGO          CLEAR     69  52  54 W8        29.94S
WAHPETON ARPT  CLEAR     64  54  68 NW6       29.97S
$$

 *****  WEATHER ACROSS CENTRAL AND WESTERN NORTH DAKOTA  *****

CITY           SKY/WX    TMP DP  RH WIND       PRES   REMARKS
JAMESTOWN      CLEAR     66  51  58 W10       29.97S
BISMARCK       CLEAR     68  45  43 W21G28    30.03R
MINOT          CLOUDY    62  53  72 W18G24    29.96S
MINOT AFB      CLOUDY    61  53  75 W15G22    29.95R
GARRISON         N/A     59  51  75 W15G26    30.01S
WILLISTON      CLOUDY    58  48  69 N21G30    30.10R
DICKINSON      CLOUDY    60  43  53 W24G30    30.09R
HETTINGER      CLEAR     65  43  44 NW23G32   30.13R
$$

 *****  OTHER OBSERVATIONS NORTHEAST NORTH DAKOTA  *****

CITY           SKY/WX    TMP DP  RH WIND       PRES   REMARKS
WALHALLA       FAIR      66  63  88 W7        29.84F
LANGDON        CLOUDY    63  55  77 W9        29.88S
CAVALIER       FAIR      66  52  59 SW6       29.86R
GRAFTON        FAIR      66  54  63 SW8       29.89R
CANDO          FAIR      63  50  63 W13       29.93R
FORT TOTTEN      N/A     64  50  61 W8        29.95S
ROLLA          MOCLDY    57  55  94 W12       29.91R
RUGBY          NOT AVBL
 ***** THE ABOVE OBSERVATIONS ARE NON NWS ARE NOT QUALITY
        CONTROLLED AND MAY MIS-REPORT RAIN FOR SNOW...
$$

 *****  OTHER OBSERVATIONS SOUTHEAST NORTH DAKOTA *****

CITY           SKY/WX    TMP DP  RH WIND       PRES   REMARKS
COOPERSTOWN    NOT AVBL
VALLEY CITY    FAIR      63  54  72 W8        29.99S
OAKES            N/A    N/A N/A N/A MISG        N/A
GWINNER        FAIR      68  55  64 W7        29.99R
SHEYENNE NWR     N/A     70  52  52 W6        29.95S
BUFFALO          N/A     65  46  50 W6          N/A
WYNDMERE         N/A     70  57  64 NW1         N/A
 ***** THE ABOVE OBSERVATIONS ARE NON NWS ARE NOT QUALITY
       CONTROLLED AND MAY MIS-REPORT RAIN FOR SNOW...
$$

  *****  WEATHER ACROSS NORTHERN MINNESOTA  *****

CITY           SKY/WX    TMP DP  RH WIND       PRES   REMARKS
FLAG ISLAND    PTCLDY    68  52  56 SW7       29.83S HAZE
WARROAD        MOCLDY    66  57  72 CALM      29.87R
ROSEAU         CLEAR     66  55  68 SW7       29.86S
HALLOCK        CLEAR     66  54  63 W7        29.86R
THF RVR FALLS  PTCLDY    67  52  58 W8        29.91R
HALSTAD          N/A     65  52  61 W9          N/A
FOSSTON        CLEAR     63  52  67 SW7       29.93S
BAUDETTE       CLOUDY    66  51  58 W6        29.87R
WASKISH        PTCLDY    68  55  64 SW12G20   29.89F
CROOKSTON      CLEAR     66  54  63 W6        29.91S
$$
  *****  WEATHER ACROSS CENTRAL AND WEST MINNESOTA  *****

CITY           SKY/WX    TMP DP  RH WIND       PRES   REMARKS
BEMIDJI        CLEAR     65  54  66 SW6       29.93S
PARK RAPIDS    CLEAR     67  54  63 W7        29.95S
WADENA         CLEAR     63  54  72 W3        29.96S
DETROIT LAKES  CLEAR     66  54  63 W5        29.97S
MOORHEAD       CLEAR     66  52  59 W9        29.95S
FERGUS FALLS   CLEAR     64  55  72 W5        29.98S
ELBOW LAKE     FAIR      64  57  79 NW7       29.98S
MORRIS MN      MOCLDY    66  59  77 SW3       29.99R
STAPLES        CLEAR     64  54  68 CALM      29.97R
WHEATON        PTCLDY    70  59  68 W5        29.99S
$$
  *****  WEATHER ELSEWHERE ACROSS MINNESOTA  *****

CITY           SKY/WX    TMP DP  RH WIND       PRES   REMARKS
DULUTH         PTCLDY    71  56  58 W12       29.91R
INTRNTL FALLS  MOCLDY    67  53  61 W6        29.86R
ELY            PTCLDY    66  54  63 W6        29.88R
CLOQUET        CLOUDY    70  52  52 W9        29.93R
BRAINERD       PTCLDY    69  55  60 W7        29.96R
HIBBING        CLEAR     66  53  63 W6        29.91R
ALEXANDRIA     PTCLDY    68  55  63 W7        30.00R
SAINT CLOUD    CLOUDY    68  59  73 W6        29.97S
MINNEAPOLIS    CLOUDY    72  56  57 W7        29.97R
$$

  *****  WEATHER ACROSS SOUTH DAKOTA  *****

CITY           SKY/WX    TMP DP  RH WIND       PRES   REMARKS
SIOUX FALLS    CLOUDY    71  57  61 SW5       30.05S
BROOKINGS      CLOUDY    68  59  73 S9        30.05R
WATERTOWN      CLOUDY    68  57  68 NW3       30.01F
HURON          CLOUDY    69  55  60 SW6       30.02R
SISSETON         N/A     71  55  56 NW6       29.97S
ABERDEEN       PTCLDY    70  53  54 W6        29.99F
MITCHELL       CLOUDY    71  57  61 SW6       30.06R
PIERRE         PTCLDY    72  48  42 NW5       30.04R
MOBRIDGE       CLEAR     76  42  29 NW17      30.02R
RAPID CITY     PTCLDY    68  44  42 N15       30.17R
$$

  *****  SOME WEATHER IN NEARBY STATES *****

CITY           SKY/WX    TMP DP  RH WIND       PRES   REMARKS
GLASGOW MT     CLOUDY    57  46  66 NW18G25   30.21R
GREAT FALLS MT CLOUDY    62  38  40 S3        30.33S
CHEYENNE WY    LGT RAIN  60  47  61 S15       30.25S
SCOTTSBLUFF NE CLOUDY    67  44  43 E10       30.17R
OMAHA NE       MOCLDY    70  64  81 N6        30.03R
DES MOINES IA  CLOUDY    74  71  91 N10       29.96F
DAVENPORT IA   CLOUDY    76  71  85 W3        29.96S
CHICAGO IL     MOCLDY    79  72  79 W8        29.96R
EAU CLAIRE WI  PTCLDY    71  61  70 W6        29.93R
LA CROSSE WI   CLEAR     74  32  21 W5        29.94R
$$

  *****  SOME NATIONAL WEATHER *****

CITY           SKY/WX    TMP DP  RH WIND       PRES   REMARKS
LA GUARDIA NY  PTCLDY    78  64  61 S13       30.17R
RALEIGH NC     PTCLDY    76  64  66 CALM      30.22R
ATLANTA GA     MOCLDY    78  74  87 E6        30.20S
NEW ORLEANS LA CLOUDY    84  77  79 S5        30.08S HX  94
OKLAHOMA CITY  PTCLDY    87  67  51 S15       29.97S HX  90
ALBUQUERQUE NM PTCLDY    75  47  36 VRB7      30.16S
SALT LAKE CITY MOSUNNY   81  19  10 N10       30.08F
LOS ANGELES CA SUNNY     70  61  73 W9        29.93F
BOISE ID       SUNNY     81  26  13 W13       30.05F
SEATTLE WA     MOSUNNY   84  53  34 N12       30.15F
$$

*** WEATHER ACROSS MANITOBA...SASKATCHEWAN AND ONTARIO ***
                ***ONTARIO***

CITY           SKY/WX    TMP DP  RH WIND       PRES   REMARKS
GERALDTON      MOCLDY    63  63 100 W3        29.77R
THUNDER BAY    MOCLDY    70  64  83 E5        29.78R
SIOUX LOOKOUT  PTCLDY    63  59  88 VRB2      29.78R
TORONTO        MOCLDY    81  61  50 SW12G20   29.99F
BIG TROUT LK   CLOUDY    52  48  87 E5        29.91F
PICKLE LAKE    LGT RAIN  55  55 100 NE8       29.81R VSB 1
DRYDEN         CLOUDY    70  55  60 SW15G22   29.80R
KENORA         MOCLDY    68  52  56 W7        29.83R
$$
                *** MANITOBA***

CITY           SKY/WX    TMP DP  RH WIND       PRES   REMARKS
BRANDON        MOCLDY    61  57  88 NW9       29.86R
DAUPHIN        LGT RAIN  57  55  94 N20G25    29.89R VSB 1
ISLAND LAKE    MOCLDY    59  52  77 NE5       29.93S
PILOT MOUND      N/A     63  54  72 W9          N/A
THE PAS        PTCLDY    66  41  39 N10       30.00S
THOMPSON       PTCLDY    61  41  48 N2        29.97S
WINNIPEG       PTCLDY    68  54  60 SW9       29.80S
LYNN LAKE      CLEAR     63  57  82 MISG      30.01S
CHURCHILL      MOCLDY    55  45  67 SE5       29.92S
GILLAM         PTCLDY    64  39  39 N5        29.94S
$$
                ***SASKATCHEWAN***

CITY           SKY/WX    TMP DP  RH WIND       PRES   REMARKS
ESTEVAN        CLOUDY    55  50  82 NW21G29   30.03
KINDERSLEY     MOSUNNY   64  46  52 N5        30.20F
LLOYDMINSTER   MOSUNNY   68  50  52 VRB2      30.18F
PRINCE ALBERT  PTCLDY    66  50  55 N5        30.09S
REGINA         CLOUDY    54  52  94 NW7       30.13R
YORKTON        MOCLDY    54  50  87 N15G21    30.04R   C1F1C2F2C3F3C4F4C5F5C6F6C7F7C8F8C9F9CaFaCbFbCcFcCdFdCe!



USA.gov is the U.S. government's official web portal to all federal, state and local government web resources and services.